CDT,Max TemperatureF,Mean TemperatureF,Min TemperatureF,Max Dew PointF,MeanDew PointF,Min DewpointF,Max Humidity, Mean Humidity, Min Humidity, Max Sea Level PressureIn, Mean Sea Level PressureIn, Min Sea Level PressureIn, Max VisibilityMiles, Mean VisibilityMiles, Min VisibilityMiles, Max Wind SpeedMPH, Mean Wind SpeedMPH, Max Gust SpeedMPH,PrecipitationIn, CloudCover, Events, WindDirDegrees
2012-10-1,71,55,38,50,38,25,77,45,13,30.13,30.06,29.94,10,10,9,21,10,28,T,2,Rain,341
2012-10-2,79,58,36,32,29,26,82,49,16,30.03,29.86,29.72,10,10,10,23,10,32,0.00,0,,173
2012-10-3,85,62,39,41,35,27,76,47,17,29.99,29.74,29.58,10,9,2,40,18,54,0.00,3,,158
2012-10-4,49,42,34,39,31,24,85,65,45,30.35,30.23,30.06,10,10,5,30,19,39,T,8,Rain,320
2012-10-5,49,36,22,26,21,17,88,57,18,30.39,30.35,30.30,10,10,10,24,12,31,0.00,0,,317
2012-10-6,48,34,20,28,19,13,93,59,20,30.44,30.38,30.30,10,10,10,17,8,23,0.00,2,,317
2012-10-7,60,40,19,26,21,16,84,52,19,30.28,30.06,29.84,10,10,10,20,7,28,0.00,0,,217
2012-10-8,68,54,39,40,33,25,64,48,32,29.83,29.74,29.67,10,10,8,28,10,33,0.00,5,,268
2012-10-9,51,39,26,37,28,22,69,54,38,30.14,29.97,29.78,10,10,10,31,16,40,0.00,6,,305
2012-10-10,67,46,24,31,25,19,81,53,24,30.16,30.02,29.81,10,10,10,18,8,26,0.00,0,,218
2012-10-11,52,39,25,34,29,21,88,67,45,30.45,30.23,29.85,10,10,7,24,10,32,0.00,2,,5
2012-10-12,58,42,25,37,22,14,75,46,10,30.44,30.17,29.86,10,10,10,26,14,36,0.00,3,,168
2012-10-13,69,57,44,45,40,34,86,60,27,29.83,29.72,29.66,10,10,5,15,7,22,0.00,0,,278
2012-10-14,64,49,33,36,33,28,89,62,34,30.00,29.94,29.83,10,9,7,15,7,20,0.00,0,Snow,334
2012-10-15,75,56,36,37,35,31,70,47,23,29.96,29.81,29.62,10,10,7,16,9,21,0.00,0,Snow,161
2012-10-16,76,62,47,48,42,36,74,49,22,29.62,29.48,29.23,10,10,10,18,6,23,T,1,,268
2012-10-17,61,52,43,53,41,25,97,70,33,29.49,29.36,29.15,10,10,7,43,25,58,0.09,7,Rain,312
2012-10-18,44,43,42,42,40,37,97,87,72,29.71,29.50,29.38,10,8,3,46,34,56,0.78,8,Rain,319
2012-10-19,47,43,39,40,38,36,97,84,65,29.85,29.79,29.71,10,10,10,35,15,46,T,7,Rain,337
2012-10-20,65,50,34,45,40,34,100,74,37,29.79,29.69,29.61,10,10,10,20,11,28,0.00,0,,160
2012-10-21,63,50,37,48,43,37,100,76,52,29.99,29.79,29.57,10,10,10,24,12,30,0.00,1,,14
2012-10-22,60,50,39,50,44,38,100,80,60,30.01,29.93,29.83,10,10,9,12,9,,0.00,6,,36
2012-10-23,62,55,48,,,,,,,,,,,,,,,,0.00,,,-1
2012-10-24,50,41,32,36,33,31,100,75,50,30.03,29.97,29.92,10,7,1,24,13,30,0.15,7,Rain-Snow,351
2012-10-25,39,36,32,34,29,23,100,80,59,30.35,30.12,29.95,10,8,1,24,15,32,0.07,8,Snow,331
2012-10-26,39,33,27,26,22,18,85,65,44,30.48,30.42,30.36,10,10,10,18,10,23,0.00,8,,279
2012-10-27,43,32,21,34,28,20,100,79,57,30.37,30.28,30.18,10,10,9,17,8,23,0.00,5,,162
2012-10-28,50,42,33,35,33,30,96,76,56,30.25,30.19,30.10,10,9,5,17,9,25,T,6,,150
2012-10-29,57,47,36,34,33,31,82,61,40,30.11,30.08,30.06,10,10,10,18,10,26,0.00,4,,148
2012-10-30,55,45,34,34,32,27,73,59,44,30.10,30.07,30.04,10,10,10,17,10,24,T,5,Rain,142
2012-10-31,62,46,29,39,31,25,92,66,39,30.06,30.02,29.96,10,10,9,12,5,16,0.00,0,,165